カタログに戻る

STARLINK-30140

運用中通信VLEO
NORAD 57458·PAYLOAD·🇺🇸 United States

打ち上げ Jul 28, 2023 から Cape Canaveral Space Force Station

Loading…

次のパス (今後24時間)

TLE

最新Source: CelesTrak SupGP

元期: Sep 14, 2026, 13:44 UTC

1 57458C 23107B   26257.57270833 -.00037398  00000+0 -13550-2 0  2573
2 57458  43.0020 352.6929 0001298 270.5755 161.5447 15.27587579    12

AllMySatでSTARLINK-30140をリアルタイム追跡

Download on the App Store